Location: *
(40.4000°N, 15.1200°E)
Time: 05:06:20
(UTC+00:00)

Cosmos 1763 Rocket - Pass Details

Date: 09 April 2020
Orbit: 734 x 779 km, 74.0° (Epoch: 05 June)

Event Time Altitude Azimuth Distance (km) Brightness Sun altitude
Rises 19:44:14 0° 345° (NNW) 3,218 7.5 -23.8°
Reaches altitude 10° 19:46:41 10° 351° (N) 2,281 6.5 -24.2°
Enters shadow 19:51:24 50° 54° (NE) 952 3.8 -24.9°
